(488) Kreusa
ephemeris date magn radius delta ra dec elong phase
Opposition5 Apr 202511.82.734 AU1.760 AU13h24m+09°01'163.4°6.0°
Today19 Apr 202511.92.746 AU1.790 AU13h13m+09°28'157.9°7.9°
(488) Kreusa - 2025-04-19
astro.vanbuitenen.nl


 
-1 year
-1 month
-1 day
Now
+1 day
+1 month
+1 year

The interactive orbit chart above shows the body's path through the solar system and its position at the given date. Green and blue lines are shown perpendicular to the ecliptic plane: Green if the path is above the ecliptic plane, blue if it is below. (Left-click and drag to rotate the view; Right-click and drag to move the view; Use scroll wheel to zoom in our out.)

The orbital elements of Kreusa are:

            e (Eccentricity)                : 0.1583151
            a (Semimajor axis)              : 3.1666778
            i (Inclination)                 : 11.47623
            Ω (Longitude of ascending node) : 82.98126
            ω (Argument of perihelion)      : 77.22942
            M (Mean anomaly)                : 30.88748
            Epoch                           : 2025 May 05

            L (Longitude of perihelion)     : 159.95895
            B (Latitude of perihelion)      : 11.18863
            P (Orbital period in years)     : 5.64            
        

The light curve chart below shows the estimated development of the minor planet's magnitude.


The all-sky chart below shows the path of the minor planet over the same period as the light curve. The current position is marked yellow.





The following chart shows the path of the minor planet in the next few days. The field of view is optimized for (~10x50) binoculars and finderscopes. A more printer-friendly version of the same chart can be found below.




Ephemerides:
Date       Time       RA (2000)    DEC (2000)    delta   radius  elong  phase   PA    magn
2025-04-19 00:00 UT   13 13 54.9   +09 28 12     1.790    2.746  157.9    7.9   158   11.9 
2025-04-19 20:47 UT   13 13 15.5   +09 28 48     1.793    2.747  157.2    8.1   156   11.9 
2025-04-20 00:00 UT   13 13 09.4   +09 28 52     1.794    2.747  157.1    8.2   156   11.9 
2025-04-21 00:00 UT   13 12 24.5   +09 29 21     1.798    2.748  156.3    8.4   153   11.9 
2025-04-22 00:00 UT   13 11 40.2   +09 29 37     1.803    2.749  155.5    8.7   151   12.0 
2025-04-23 00:00 UT   13 10 56.5   +09 29 41     1.808    2.750  154.7    9.0   150   12.0 
2025-04-24 00:00 UT   13 10 13.5   +09 29 33     1.813    2.751  153.8    9.3   148   12.0 
2025-04-25 00:00 UT   13 09 31.3   +09 29 14     1.818    2.752  152.9    9.6   146   12.0 
2025-04-26 00:00 UT   13 08 49.9   +09 28 42     1.824    2.753  152.1    9.9   145   12.0 
2025-04-27 00:00 UT   13 08 09.2   +09 27 58     1.829    2.754  151.2   10.2   143   12.0 
2025-04-28 00:00 UT   13 07 29.5   +09 27 01     1.835    2.755  150.3   10.4   142   12.1 
2025-04-29 00:00 UT   13 06 50.7   +09 25 53     1.842    2.756  149.3   10.7   141   12.1 
2025-04-30 00:00 UT   13 06 12.8   +09 24 33     1.848    2.757  148.4   11.0   139   12.1 
2025-05-01 00:00 UT   13 05 35.9   +09 23 00     1.855    2.758  147.5   11.3   138   12.1 
2025-05-02 00:00 UT   13 05 00.1   +09 21 16     1.862    2.759  146.6   11.6   137   12.1 
2025-05-03 00:00 UT   13 04 25.3   +09 19 19     1.869    2.760  145.6   11.9   136   12.2 
2025-05-04 00:00 UT   13 03 51.6   +09 17 11     1.876    2.761  144.7   12.2   135   12.2 
2025-05-05 00:00 UT   13 03 19.0   +09 14 51     1.884    2.762  143.8   12.5   134   12.2 
2025-05-06 00:00 UT   13 02 47.6   +09 12 20     1.892    2.763  142.8   12.7   133   12.2 
2025-05-07 00:00 UT   13 02 17.3   +09 09 37     1.900    2.764  141.9   13.0   133   12.2 
2025-05-08 00:00 UT   13 01 48.2   +09 06 43     1.908    2.766  140.9   13.3   132   12.3 
2025-05-09 00:00 UT   13 01 20.4   +09 03 37     1.916    2.767  140.0   13.6   131   12.3 
2025-05-10 00:00 UT   13 00 53.7   +09 00 21     1.925    2.768  139.0   13.8   130   12.3 
2025-05-11 00:00 UT   13 00 28.3   +08 56 54     1.934    2.769  138.1   14.1   130   12.3 
2025-05-12 00:00 UT   13 00 04.1   +08 53 16     1.943    2.770  137.2   14.4   129   12.3 
2025-05-13 00:00 UT   12 59 41.2   +08 49 28     1.952    2.771  136.2   14.6   128   12.4 
2025-05-14 00:00 UT   12 59 19.6   +08 45 30     1.961    2.772  135.3   14.9   128   12.4 
2025-05-15 00:00 UT   12 58 59.3   +08 41 21     1.970    2.773  134.4   15.1   127   12.4 
2025-05-16 00:00 UT   12 58 40.3   +08 37 02     1.980    2.774  133.4   15.3   127   12.4 
2025-05-17 00:00 UT   12 58 22.5   +08 32 34     1.990    2.775  132.5   15.6   126   12.4 
2025-05-18 00:00 UT   12 58 06.1   +08 27 56     2.000    2.776  131.6   15.8   126   12.5 
2025-05-19 00:00 UT   12 57 51.0   +08 23 08     2.010    2.777  130.7   16.0   125   12.5 


    Terminology:
            
    delta:  distance between minor planet and earth in AU
    radius: distance between minor planet and sun in AU
    magn:   magnitude (brightness) estimate    
    ra:     right ascension in hours (24h = 360deg)
    dec:    declination in degrees
    elong:  elongation in degrees (angle sun-earth-minor planet)    
    phase:  phase angle in degrees (angle sun-minor planet-earth)        
    AU:     Astronomical Unit (mean distance between earth and sun: 149597870.7 km
    

Orbital elements provided by the MPC (Minor Planet Center).
Calculations by a modified version of AAPlus, a C# implementation of the AA+ project by PJ Naughter from the algorithms presented in the book "Astronomical Algorithms" by Jean Meeus.
NGC2000 dso catalog and star labels from VizieR as provided by the Strasbourg astronomical Data Center.
Tycho2 catalog from the ESO archive.